Regional Weather Roundup
Issued by NWS Cleveland, OH

Home | Current Version | Previous Version | Text Only | Print | Product List | Glossary Off
Versions: 1 2 3 4 5 6 7 8 9 10 11 12 13 14 15 16 17 18 19 20 21 22 23 24 25 26 27 28 29 30 31 32 33 34 35 36 37 38 39 40 41 42 43 44 45 46 47 48 49 50

000
ASUS41 KCLE 202112
RWRCLE
OHIO REGIONAL WEATHER ROUNDUP
NATIONAL WEATHER SERVICE WILMINGTON, OH
500 PM EDT SUN MAY 20 2018

NOTE: "FAIR" INDICATES FEW OR NO CLOUDS BELOW 12,000 FEET WITH NO
SIGNIFICANT WEATHER AND/OR OBSTRUCTIONS TO VISIBILITY.

OHZ001>008-015>018-024>027-034-035-043-044-202200-
   NORTHWEST OHIO

CITY           SKY/WX    TMP DP  RH WIND       PRES   REMARKS
DEFIANCE       CLOUDY    69  61  75 NE7       30.14S
FINDLAY        CLOUDY    69  59  70 E8        30.14S
TOLEDO EXPRESS CLOUDY    65  61  87 E10       30.14F
TOLEDO EXEC    CLOUDY    62  56  80 NE8       30.18S
LIMA           CLOUDY    75  60  59 NE7       30.12S
$$

OHZ009>014-019>023-028>033-038-089-202200-
   NORTHEAST OHIO

CITY           SKY/WX    TMP DP  RH WIND       PRES   REMARKS
CLE-HOPKINS    FAIR      62  53  72 VRB6      30.18F
CLE-LAKEFRONT  FAIR      59  52  77 N7        30.16F
CUY CO. ARPT   PTSUNNY   63  55  77 NE9       30.17F
LORAIN-ELYRIA  FAIR      64  51  62 NE10      30.16F
ASHTABULA      PTSUNNY   60  54  80 CALM      30.17F
AKRON-CANTON   PTSUNNY   70  56  61 N8        30.15F
WOOSTER        CLOUDY    67  57  70 N5        30.16F
MANSFIELD      CLOUDY    67  57  70 NE9       30.16F
YOUNGSTOWN     PTSUNNY   68  55  63 N7        30.15F
$$

OHZ042-051>053-060>062-070>072-077>081-202200-
  SOUTHWEST OHIO

CITY           SKY/WX    TMP DP  RH WIND       PRES   REMARKS
CINC-COVINGTON FAIR      86  62  44 CALM      30.07F
CINC-LUNKEN    FAIR      85  67  54 SE5       30.05F
HAMILTON       LGT RAIN  84  31  14 CALM      30.07F
DAYTON         FAIR      78  66  66 NE8       30.11S
WRIGHT-PAT AFB FAIR      80  65  60 N7        30.09F
DAYTON GENERAL FAIR      84  64  50 N3        30.07F
WILMINGTON     FAIR      82  66  58 NE6       30.07F
$$

OHZ036-037-039>041-045>050-054>059-063>069-073>076-082>088-202200-
  CENTRAL AND SOUTHEAST OHIO

CITY           SKY/WX    TMP DP  RH WIND       PRES   REMARKS
COLUMBUS       PTSUNNY   77  59  53 N3        30.10F
OSU AIRPORT    FAIR      76  61  59 CALM      30.10F
BOLTON FIELD   SUNNY     75  63  64 CALM      30.11F
RICKENBACK AFB HAZE      77  59  55 MISG      30.09F VSB 1
NEWARK         FAIR      78  61  55 CALM      30.09F
MARION         FAIR      71  58  63 NE9       30.14F
LANCASTER      FAIR      79  62  56 NW5       30.10F
ZANESVILLE     FAIR      79  61  53 N7        30.10F
NEW PHILLY     PTSUNNY   73  60  63 N9        30.13F
$$



USA.gov is the U.S. government's official web portal to all federal, state and local government web resources and services.